owner,sensor,date,latitude,longitude,vertical_datum,sea_water_temperature,qcFlag 
NERRS,ioos:station:NOAA.NERRS:apaebwq:1,2017-09-01T00:45:00Z,29.7858,-84.8752,0.0,30.2,2 
NERRS,ioos:station:NOAA.NERRS:apaebwq:1,2017-09-01T01:45:00Z,29.7858,-84.8752,0.0,30.1,2 
NERRS,ioos:station:NOAA.NERRS:apaebwq:1,2017-09-01T02:45:00Z,29.7858,-84.8752,0.0,30.1,2 
NERRS,ioos:station:NOAA.NERRS:apaebwq:1,2017-09-01T03:45:00Z,29.7858,-84.8752,0.0,30.0,2 
NERRS,ioos:station:NOAA.NERRS:apaebwq:1,2017-09-01T04:45:00Z,29.7858,-84.8752,0.0,29.9,2 
NERRS,ioos:station:NOAA.NERRS:apaebwq:1,2017-09-01T05:45:00Z,29.7858,-84.8752,0.0,29.8,2 
NERRS,ioos:station:NOAA.NERRS:apaebwq:1,2017-09-01T06:45:00Z,29.7858,-84.8752,0.0,29.8,2 
NERRS,ioos:station:NOAA.NERRS:apaebwq:1,2017-09-01T07:45:00Z,29.7858,-84.8752,0.0,29.8,2 
NERRS,ioos:station:NOAA.NERRS:apaebwq:1,2017-09-01T08:45:00Z,29.7858,-84.8752,0.0,29.7,2 
NERRS,ioos:station:NOAA.NERRS:apaebwq:1,2017-09-01T09:45:00Z,29.7858,-84.8752,0.0,29.7,2 
NERRS,ioos:station:NOAA.NERRS:apaebwq:1,2017-09-01T10:45:00Z,29.7858,-84.8752,0.0,29.7,2 
NERRS,ioos:station:NOAA.NERRS:apaebwq:1,2017-09-01T11:45:00Z,29.7858,-84.8752,0.0,29.6,2 
NERRS,ioos:station:NOAA.NERRS:apaebwq:1,2017-09-01T12:45:00Z,29.7858,-84.8752,0.0,29.6,2 
NERRS,ioos:station:NOAA.NERRS:apaebwq:1,2017-09-01T13:45:00Z,29.7858,-84.8752,0.0,29.5,2 
NERRS,ioos:station:NOAA.NERRS:apaebwq:1,2017-09-01T14:45:00Z,29.7858,-84.8752,0.0,29.5,2 
NERRS,ioos:station:NOAA.NERRS:apaebwq:1,2017-09-01T15:45:00Z,29.7858,-84.8752,0.0,29.5,2 
NERRS,ioos:station:NOAA.NERRS:apaebwq:1,2017-09-01T16:45:00Z,29.7858,-84.8752,0.0,29.5,2 
NERRS,ioos:station:NOAA.NERRS:apaebwq:1,2017-09-01T17:45:00Z,29.7858,-84.8752,0.0,29.3,2 
NERRS,ioos:station:NOAA.NERRS:apaebwq:1,2017-09-01T18:45:00Z,29.7858,-84.8752,0.0,29.6,2 
NERRS,ioos:station:NOAA.NERRS:apaebwq:1,2017-09-01T19:45:00Z,29.7858,-84.8752,0.0,30.2,2 
NERRS,ioos:station:NOAA.NERRS:apaebwq:1,2017-09-01T20:45:00Z,29.7858,-84.8752,0.0,29.9,2 
NERRS,ioos:station:NOAA.NERRS:apaebwq:1,2017-09-01T21:45:00Z,29.7858,-84.8752,0.0,30.7,2 
NERRS,ioos:station:NOAA.NERRS:apaebwq:1,2017-09-01T23:45:00Z,29.7858,-84.8752,0.0,30.5,2 
NERRS,ioos:station:NOAA.NERRS:apaebwq:1,2017-09-02T00:45:00Z,29.7858,-84.8752,0.0,30.5,2 
NERRS,ioos:station:NOAA.NERRS:apaebwq:1,2017-09-02T01:45:00Z,29.7858,-84.8752,0.0,30.2,2 
NERRS,ioos:station:NOAA.NERRS:apaebwq:1,2017-09-02T02:45:00Z,29.7858,-84.8752,0.0,30.1,2 
NERRS,ioos:station:NOAA.NERRS:apaebwq:1,2017-09-02T03:45:00Z,29.7858,-84.8752,0.0,29.9,2 
NERRS,ioos:station:NOAA.NERRS:apaebwq:1,2017-09-02T04:45:00Z,29.7858,-84.8752,0.0,29.6,2 
NERRS,ioos:station:NOAA.NERRS:apaebwq:1,2017-09-02T05:45:00Z,29.7858,-84.8752,0.0,29.5,2 
NERRS,ioos:station:NOAA.NERRS:apaebwq:1,2017-09-02T06:45:00Z,29.7858,-84.8752,0.0,29.4,2 
NERRS,ioos:station:NOAA.NERRS:apaebwq:1,2017-09-02T07:45:00Z,29.7858,-84.8752,0.0,29.1,2 
NERRS,ioos:station:NOAA.NERRS:apaebwq:1,2017-09-02T08:45:00Z,29.7858,-84.8752,0.0,29.0,2 
NERRS,ioos:station:NOAA.NERRS:apaebwq:1,2017-09-02T09:45:00Z,29.7858,-84.8752,0.0,29.1,2 
NERRS,ioos:station:NOAA.NERRS:apaebwq:1,2017-09-02T10:45:00Z,29.7858,-84.8752,0.0,29.1,2 
NERRS,ioos:station:NOAA.NERRS:apaebwq:1,2017-09-02T11:45:00Z,29.7858,-84.8752,0.0,29.1,2 
NERRS,ioos:station:NOAA.NERRS:apaebwq:1,2017-09-02T12:45:00Z,29.7858,-84.8752,0.0,28.9,2 
NERRS,ioos:station:NOAA.NERRS:apaebwq:1,2017-09-02T13:45:00Z,29.7858,-84.8752,0.0,28.7,2 
NERRS,ioos:station:NOAA.NERRS:apaebwq:1,2017-09-02T14:45:00Z,29.7858,-84.8752,0.0,28.6,2 
NERRS,ioos:station:NOAA.NERRS:apaebwq:1,2017-09-02T15:45:00Z,29.7858,-84.8752,0.0,28.6,2 
NERRS,ioos:station:NOAA.NERRS:apaebwq:1,2017-09-02T16:45:00Z,29.7858,-84.8752,0.0,28.9,2 
NERRS,ioos:station:NOAA.NERRS:apaebwq:1,2017-09-02T17:45:00Z,29.7858,-84.8752,0.0,29.0,2 
NERRS,ioos:station:NOAA.NERRS:apaebwq:1,2017-09-02T18:45:00Z,29.7858,-84.8752,0.0,29.7,2 
NERRS,ioos:station:NOAA.NERRS:apaebwq:1,2017-09-02T19:45:00Z,29.7858,-84.8752,0.0,30.0,2 
NERRS,ioos:station:NOAA.NERRS:apaebwq:1,2017-09-02T20:45:00Z,29.7858,-84.8752,0.0,30.2,2 
NERRS,ioos:station:NOAA.NERRS:apaebwq:1,2017-09-02T21:45:00Z,29.7858,-84.8752,0.0,30.0,2 
NERRS,ioos:station:NOAA.NERRS:apaebwq:1,2017-09-02T22:45:00Z,29.7858,-84.8752,0.0,30.3,2 
NERRS,ioos:station:NOAA.NERRS:apaebwq:1,2017-09-02T23:45:00Z,29.7858,-84.8752,0.0,30.4,2 
NERRS,ioos:station:NOAA.NERRS:apaebwq:1,2017-09-03T00:45:00Z,29.7858,-84.8752,0.0,30.2,2 
NERRS,ioos:station:NOAA.NERRS:apaebwq:1,2017-09-03T01:45:00Z,29.7858,-84.8752,0.0,30.1,2 
NERRS,ioos:station:NOAA.NERRS:apaebwq:1,2017-09-03T02:45:00Z,29.7858,-84.8752,0.0,30.0,2 
NERRS,ioos:station:NOAA.NERRS:apaebwq:1,2017-09-03T03:45:00Z,29.7858,-84.8752,0.0,30.0,2 
NERRS,ioos:station:NOAA.NERRS:apaebwq:1,2017-09-03T04:45:00Z,29.7858,-84.8752,0.0,29.8,2 
NERRS,ioos:station:NOAA.NERRS:apaebwq:1,2017-09-03T05:45:00Z,29.7858,-84.8752,0.0,29.5,2 
NERRS,ioos:station:NOAA.NERRS:apaebwq:1,2017-09-03T06:45:00Z,29.7858,-84.8752,0.0,29.3,2 
NERRS,ioos:station:NOAA.NERRS:apaebwq:1,2017-09-03T07:45:00Z,29.7858,-84.8752,0.0,29.3,2 
NERRS,ioos:station:NOAA.NERRS:apaebwq:1,2017-09-03T08:45:00Z,29.7858,-84.8752,0.0,29.3,2 
NERRS,ioos:station:NOAA.NERRS:apaebwq:1,2017-09-03T09:45:00Z,29.7858,-84.8752,0.0,29.3,2 
NERRS,ioos:station:NOAA.NERRS:apaebwq:1,2017-09-03T10:45:00Z,29.7858,-84.8752,0.0,29.2,2 
NERRS,ioos:station:NOAA.NERRS:apaebwq:1,2017-09-03T11:45:00Z,29.7858,-84.8752,0.0,29.3,2 
NERRS,ioos:station:NOAA.NERRS:apaebwq:1,2017-09-03T12:45:00Z,29.7858,-84.8752,0.0,29.3,2 
NERRS,ioos:station:NOAA.NERRS:apaebwq:1,2017-09-03T13:45:00Z,29.7858,-84.8752,0.0,29.3,2 
NERRS,ioos:station:NOAA.NERRS:apaebwq:1,2017-09-03T14:45:00Z,29.7858,-84.8752,0.0,29.3,2 
NERRS,ioos:station:NOAA.NERRS:apaebwq:1,2017-09-03T15:45:00Z,29.7858,-84.8752,0.0,29.2,2 
NERRS,ioos:station:NOAA.NERRS:apaebwq:1,2017-09-03T16:45:00Z,29.7858,-84.8752,0.0,29.3,2 
NERRS,ioos:station:NOAA.NERRS:apaebwq:1,2017-09-03T17:45:00Z,29.7858,-84.8752,0.0,29.4,2 
NERRS,ioos:station:NOAA.NERRS:apaebwq:1,2017-09-03T18:45:00Z,29.7858,-84.8752,0.0,29.5,2 
NERRS,ioos:station:NOAA.NERRS:apaebwq:1,2017-09-03T19:45:00Z,29.7858,-84.8752,0.0,30.1,2 
NERRS,ioos:station:NOAA.NERRS:apaebwq:1,2017-09-03T20:45:00Z,29.7858,-84.8752,0.0,30.2,2 
NERRS,ioos:station:NOAA.NERRS:apaebwq:1,2017-09-03T21:45:00Z,29.7858,-84.8752,0.0,30.5,2 
NERRS,ioos:station:NOAA.NERRS:apaebwq:1,2017-09-03T22:45:00Z,29.7858,-84.8752,0.0,30.4,2 
NERRS,ioos:station:NOAA.NERRS:apaebwq:1,2017-09-03T23:45:00Z,29.7858,-84.8752,0.0,30.7,2 
NERRS,ioos:station:NOAA.NERRS:apaebwq:1,2017-09-04T00:45:00Z,29.7858,-84.8752,0.0,31.0,2 
NERRS,ioos:station:NOAA.NERRS:apaebwq:1,2017-09-04T01:45:00Z,29.7858,-84.8752,0.0,30.7,2 
NERRS,ioos:station:NOAA.NERRS:apaebwq:1,2017-09-04T02:45:00Z,29.7858,-84.8752,0.0,30.6,2 
NERRS,ioos:station:NOAA.NERRS:apaebwq:1,2017-09-04T03:45:00Z,29.7858,-84.8752,0.0,30.5,2 
NERRS,ioos:station:NOAA.NERRS:apaebwq:1,2017-09-04T04:45:00Z,29.7858,-84.8752,0.0,30.2,2 
NERRS,ioos:station:NOAA.NERRS:apaebwq:1,2017-09-04T05:45:00Z,29.7858,-84.8752,0.0,29.9,2 
NERRS,ioos:station:NOAA.NERRS:apaebwq:1,2017-09-04T06:45:00Z,29.7858,-84.8752,0.0,29.8,2 
NERRS,ioos:station:NOAA.NERRS:apaebwq:1,2017-09-04T07:45:00Z,29.7858,-84.8752,0.0,29.8,2 
NERRS,ioos:station:NOAA.NERRS:apaebwq:1,2017-09-04T08:45:00Z,29.7858,-84.8752,0.0,29.7,2 
NERRS,ioos:station:NOAA.NERRS:apaebwq:1,2017-09-04T09:45:00Z,29.7858,-84.8752,0.0,29.7,2 
NERRS,ioos:station:NOAA.NERRS:apaebwq:1,2017-09-04T10:45:00Z,29.7858,-84.8752,0.0,29.7,2 
NERRS,ioos:station:NOAA.NERRS:apaebwq:1,2017-09-04T11:45:00Z,29.7858,-84.8752,0.0,29.3,2 
NERRS,ioos:station:NOAA.NERRS:apaebwq:1,2017-09-04T12:45:00Z,29.7858,-84.8752,0.0,29.1,2 
NERRS,ioos:station:NOAA.NERRS:apaebwq:1,2017-09-04T13:45:00Z,29.7858,-84.8752,0.0,29.1,2 
NERRS,ioos:station:NOAA.NERRS:apaebwq:1,2017-09-04T14:45:00Z,29.7858,-84.8752,0.0,29.2,2 
NERRS,ioos:station:NOAA.NERRS:apaebwq:1,2017-09-04T15:45:00Z,29.7858,-84.8752,0.0,29.5,2 
NERRS,ioos:station:NOAA.NERRS:apaebwq:1,2017-09-04T16:45:00Z,29.7858,-84.8752,0.0,29.6,2 
NERRS,ioos:station:NOAA.NERRS:apaebwq:1,2017-09-04T17:45:00Z,29.7858,-84.8752,0.0,29.7,2 
NERRS,ioos:station:NOAA.NERRS:apaebwq:1,2017-09-04T18:45:00Z,29.7858,-84.8752,0.0,29.7,2 
NERRS,ioos:station:NOAA.NERRS:apaebwq:1,2017-09-04T19:45:00Z,29.7858,-84.8752,0.0,29.7,2 
NERRS,ioos:station:NOAA.NERRS:apaebwq:1,2017-09-04T20:45:00Z,29.7858,-84.8752,0.0,29.7,2 
NERRS,ioos:station:NOAA.NERRS:apaebwq:1,2017-09-04T21:45:00Z,29.7858,-84.8752,0.0,29.7,2 
NERRS,ioos:station:NOAA.NERRS:apaebwq:1,2017-09-04T23:45:00Z,29.7858,-84.8752,0.0,29.8,2 
NERRS,ioos:station:NOAA.NERRS:apaebwq:1,2017-09-05T00:45:00Z,29.7858,-84.8752,0.0,29.8,2 
NERRS,ioos:station:NOAA.NERRS:apaebwq:1,2017-09-05T01:45:00Z,29.7858,-84.8752,0.0,29.8,2 
NERRS,ioos:station:NOAA.NERRS:apaebwq:1,2017-09-05T02:45:00Z,29.7858,-84.8752,0.0,29.8,2 
NERRS,ioos:station:NOAA.NERRS:apaebwq:1,2017-09-05T03:45:00Z,29.7858,-84.8752,0.0,29.9,2 
NERRS,ioos:station:NOAA.NERRS:apaebwq:1,2017-09-05T04:45:00Z,29.7858,-84.8752,0.0,29.9,2 
NERRS,ioos:station:NOAA.NERRS:apaebwq:1,2017-09-05T05:45:00Z,29.7858,-84.8752,0.0,30.0,2 
NERRS,ioos:station:NOAA.NERRS:apaebwq:1,2017-09-05T06:45:00Z,29.7858,-84.8752,0.0,30.1,2 
NERRS,ioos:station:NOAA.NERRS:apaebwq:1,2017-09-05T07:45:00Z,29.7858,-84.8752,0.0,30.1,2 
NERRS,ioos:station:NOAA.NERRS:apaebwq:1,2017-09-05T08:45:00Z,29.7858,-84.8752,0.0,30.1,2 
NERRS,ioos:station:NOAA.NERRS:apaebwq:1,2017-09-05T09:45:00Z,29.7858,-84.8752,0.0,30.1,2 
NERRS,ioos:station:NOAA.NERRS:apaebwq:1,2017-09-05T10:45:00Z,29.7858,-84.8752,0.0,30.0,2 
NERRS,ioos:station:NOAA.NERRS:apaebwq:1,2017-09-05T11:45:00Z,29.7858,-84.8752,0.0,30.0,2 
NERRS,ioos:station:NOAA.NERRS:apaebwq:1,2017-09-05T12:45:00Z,29.7858,-84.8752,0.0,30.1,2 
NERRS,ioos:station:NOAA.NERRS:apaebwq:1,2017-09-05T13:45:00Z,29.7858,-84.8752,0.0,30.1,2 
NERRS,ioos:station:NOAA.NERRS:apaebwq:1,2017-09-05T15:45:00Z,29.7858,-84.8752,0.0,30.1,2 
NERRS,ioos:station:NOAA.NERRS:apaebwq:1,2017-09-05T16:45:00Z,29.7858,-84.8752,0.0,30.1,2 
NERRS,ioos:station:NOAA.NERRS:apaebwq:1,2017-09-05T17:45:00Z,29.7858,-84.8752,0.0,30.1,2 
NERRS,ioos:station:NOAA.NERRS:apaebwq:1,2017-09-05T18:45:00Z,29.7858,-84.8752,0.0,30.1,2 
NERRS,ioos:station:NOAA.NERRS:apaebwq:1,2017-09-05T19:45:00Z,29.7858,-84.8752,0.0,30.1,2 
NERRS,ioos:station:NOAA.NERRS:apaebwq:1,2017-09-05T20:45:00Z,29.7858,-84.8752,0.0,30.1,2 
NERRS,ioos:station:NOAA.NERRS:apaebwq:1,2017-09-05T21:45:00Z,29.7858,-84.8752,0.0,30.1,2 
NERRS,ioos:station:NOAA.NERRS:apaebwq:1,2017-09-05T22:45:00Z,29.7858,-84.8752,0.0,30.0,2 
NERRS,ioos:station:NOAA.NERRS:apaebwq:1,2017-09-05T23:45:00Z,29.7858,-84.8752,0.0,30.0,2 
NERRS,ioos:station:NOAA.NERRS:apaebwq:1,2017-09-06T00:45:00Z,29.7858,-84.8752,0.0,30.0,2 
NERRS,ioos:station:NOAA.NERRS:apaebwq:1,2017-09-15T14:45:00Z,29.7858,-84.8752,0.0,24.5,2 
NERRS,ioos:station:NOAA.NERRS:apaebwq:1,2017-09-15T15:45:00Z,29.7858,-84.8752,0.0,24.5,2 
NERRS,ioos:station:NOAA.NERRS:apaebwq:1,2017-09-15T16:45:00Z,29.7858,-84.8752,0.0,24.5,2 
NERRS,ioos:station:NOAA.NERRS:apaebwq:1,2017-09-15T17:45:00Z,29.7858,-84.8752,0.0,24.5,2 
NERRS,ioos:station:NOAA.NERRS:apaebwq:1,2017-09-15T18:45:00Z,29.7858,-84.8752,0.0,24.5,2 
NERRS,ioos:station:NOAA.NERRS:apaebwq:1,2017-09-15T19:45:00Z,29.7858,-84.8752,0.0,24.5,2 
NERRS,ioos:station:NOAA.NERRS:apaebwq:1,2017-09-15T20:45:00Z,29.7858,-84.8752,0.0,24.5,2 
NERRS,ioos:station:NOAA.NERRS:apaebwq:1,2017-09-15T21:45:00Z,29.7858,-84.8752,0.0,24.6,2 
NERRS,ioos:station:NOAA.NERRS:apaebwq:1,2017-09-15T22:45:00Z,29.7858,-84.8752,0.0,24.6,2 
NERRS,ioos:station:NOAA.NERRS:apaebwq:1,2017-09-15T23:45:00Z,29.7858,-84.8752,0.0,24.6,2 
NERRS,ioos:station:NOAA.NERRS:apaebwq:1,2017-09-16T00:45:00Z,29.7858,-84.8752,0.0,24.6,2 
NERRS,ioos:station:NOAA.NERRS:apaebwq:1,2017-09-16T01:45:00Z,29.7858,-84.8752,0.0,24.6,2 
NERRS,ioos:station:NOAA.NERRS:apaebwq:1,2017-09-16T02:45:00Z,29.7858,-84.8752,0.0,24.7,2 
NERRS,ioos:station:NOAA.NERRS:apaebwq:1,2017-09-16T03:45:00Z,29.7858,-84.8752,0.0,24.7,2 
NERRS,ioos:station:NOAA.NERRS:apaebwq:1,2017-09-16T04:45:00Z,29.7858,-84.8752,0.0,24.8,2 
NERRS,ioos:station:NOAA.NERRS:apaebwq:1,2017-09-16T05:45:00Z,29.7858,-84.8752,0.0,24.9,2 
NERRS,ioos:station:NOAA.NERRS:apaebwq:1,2017-09-16T06:45:00Z,29.7858,-84.8752,0.0,24.9,2 
NERRS,ioos:station:NOAA.NERRS:apaebwq:1,2017-09-16T07:45:00Z,29.7858,-84.8752,0.0,24.9,2 
NERRS,ioos:station:NOAA.NERRS:apaebwq:1,2017-09-16T08:45:00Z,29.7858,-84.8752,0.0,25.0,2 
NERRS,ioos:station:NOAA.NERRS:apaebwq:1,2017-09-16T09:45:00Z,29.7858,-84.8752,0.0,25.0,2 
NERRS,ioos:station:NOAA.NERRS:apaebwq:1,2017-09-16T10:45:00Z,29.7858,-84.8752,0.0,25.0,2 
NERRS,ioos:station:NOAA.NERRS:apaebwq:1,2017-09-16T11:45:00Z,29.7858,-84.8752,0.0,25.0,2 
NERRS,ioos:station:NOAA.NERRS:apaebwq:1,2017-09-16T12:45:00Z,29.7858,-84.8752,0.0,25.0,2 
NERRS,ioos:station:NOAA.NERRS:apaebwq:1,2017-09-16T13:45:00Z,29.7858,-84.8752,0.0,25.1,2 
NERRS,ioos:station:NOAA.NERRS:apaebwq:1,2017-09-16T14:45:00Z,29.7858,-84.8752,0.0,25.3,2 
NERRS,ioos:station:NOAA.NERRS:apaebwq:1,2017-09-16T15:45:00Z,29.7858,-84.8752,0.0,25.3,2 
NERRS,ioos:station:NOAA.NERRS:apaebwq:1,2017-09-16T16:45:00Z,29.7858,-84.8752,0.0,25.3,2 
NERRS,ioos:station:NOAA.NERRS:apaebwq:1,2017-09-16T17:45:00Z,29.7858,-84.8752,0.0,25.3,2 
NERRS,ioos:station:NOAA.NERRS:apaebwq:1,2017-09-16T18:45:00Z,29.7858,-84.8752,0.0,25.3,2 
NERRS,ioos:station:NOAA.NERRS:apaebwq:1,2017-09-16T19:45:00Z,29.7858,-84.8752,0.0,25.3,2 
NERRS,ioos:station:NOAA.NERRS:apaebwq:1,2017-09-16T20:45:00Z,29.7858,-84.8752,0.0,25.3,2 
NERRS,ioos:station:NOAA.NERRS:apaebwq:1,2017-09-16T21:45:00Z,29.7858,-84.8752,0.0,25.3,2 
NERRS,ioos:station:NOAA.NERRS:apaebwq:1,2017-09-16T22:45:00Z,29.7858,-84.8752,0.0,25.3,2 
NERRS,ioos:station:NOAA.NERRS:apaebwq:1,2017-09-16T23:45:00Z,29.7858,-84.8752,0.0,25.3,2 
NERRS,ioos:station:NOAA.NERRS:apaebwq:1,2017-09-17T00:45:00Z,29.7858,-84.8752,0.0,25.4,2 
NERRS,ioos:station:NOAA.NERRS:apaebwq:1,2017-09-17T01:45:00Z,29.7858,-84.8752,0.0,25.4,2 
NERRS,ioos:station:NOAA.NERRS:apaebwq:1,2017-09-17T02:45:00Z,29.7858,-84.8752,0.0,25.4,2 
NERRS,ioos:station:NOAA.NERRS:apaebwq:1,2017-09-17T03:45:00Z,29.7858,-84.8752,0.0,25.5,2 
NERRS,ioos:station:NOAA.NERRS:apaebwq:1,2017-09-17T04:45:00Z,29.7858,-84.8752,0.0,25.6,2 
NERRS,ioos:station:NOAA.NERRS:apaebwq:1,2017-09-17T05:45:00Z,29.7858,-84.8752,0.0,25.6,2 
NERRS,ioos:station:NOAA.NERRS:apaebwq:1,2017-09-17T06:45:00Z,29.7858,-84.8752,0.0,25.7,2 
NERRS,ioos:station:NOAA.NERRS:apaebwq:1,2017-09-17T07:45:00Z,29.7858,-84.8752,0.0,25.7,2 
NERRS,ioos:station:NOAA.NERRS:apaebwq:1,2017-09-17T08:45:00Z,29.7858,-84.8752,0.0,25.7,2 
NERRS,ioos:station:NOAA.NERRS:apaebwq:1,2017-09-17T09:45:00Z,29.7858,-84.8752,0.0,25.7,2 
NERRS,ioos:station:NOAA.NERRS:apaebwq:1,2017-09-17T10:45:00Z,29.7858,-84.8752,0.0,25.7,2 
NERRS,ioos:station:NOAA.NERRS:apaebwq:1,2017-09-17T11:45:00Z,29.7858,-84.8752,0.0,25.7,2 
NERRS,ioos:station:NOAA.NERRS:apaebwq:1,2017-09-17T12:45:00Z,29.7858,-84.8752,0.0,25.7,2 
NERRS,ioos:station:NOAA.NERRS:apaebwq:1,2017-09-17T13:45:00Z,29.7858,-84.8752,0.0,25.7,2 
NERRS,ioos:station:NOAA.NERRS:apaebwq:1,2017-09-17T14:45:00Z,29.7858,-84.8752,0.0,25.8,2 
NERRS,ioos:station:NOAA.NERRS:apaebwq:1,2017-09-17T15:45:00Z,29.7858,-84.8752,0.0,25.9,2 
NERRS,ioos:station:NOAA.NERRS:apaebwq:1,2017-09-17T16:45:00Z,29.7858,-84.8752,0.0,26.0,2 
NERRS,ioos:station:NOAA.NERRS:apaebwq:1,2017-09-17T17:45:00Z,29.7858,-84.8752,0.0,26.2,2 
NERRS,ioos:station:NOAA.NERRS:apaebwq:1,2017-09-17T18:45:00Z,29.7858,-84.8752,0.0,26.2,2 
NERRS,ioos:station:NOAA.NERRS:apaebwq:1,2017-09-17T19:45:00Z,29.7858,-84.8752,0.0,26.3,2 
NERRS,ioos:station:NOAA.NERRS:apaebwq:1,2017-09-17T20:45:00Z,29.7858,-84.8752,0.0,26.3,2 
NERRS,ioos:station:NOAA.NERRS:apaebwq:1,2017-09-17T21:45:00Z,29.7858,-84.8752,0.0,26.3,2 
NERRS,ioos:station:NOAA.NERRS:apaebwq:1,2017-09-17T22:45:00Z,29.7858,-84.8752,0.0,26.3,2 
NERRS,ioos:station:NOAA.NERRS:apaebwq:1,2017-09-17T23:45:00Z,29.7858,-84.8752,0.0,26.3,2 
NERRS,ioos:station:NOAA.NERRS:apaebwq:1,2017-09-18T00:45:00Z,29.7858,-84.8752,0.0,26.4,2 
NERRS,ioos:station:NOAA.NERRS:apaebwq:1,2017-09-18T01:45:00Z,29.7858,-84.8752,0.0,26.4,2 
NERRS,ioos:station:NOAA.NERRS:apaebwq:1,2017-09-18T02:45:00Z,29.7858,-84.8752,0.0,26.3,2 
NERRS,ioos:station:NOAA.NERRS:apaebwq:1,2017-09-18T03:45:00Z,29.7858,-84.8752,0.0,26.4,2 
NERRS,ioos:station:NOAA.NERRS:apaebwq:1,2017-09-18T04:45:00Z,29.7858,-84.8752,0.0,26.4,2 
NERRS,ioos:station:NOAA.NERRS:apaebwq:1,2017-09-18T05:45:00Z,29.7858,-84.8752,0.0,26.5,2 
NERRS,ioos:station:NOAA.NERRS:apaebwq:1,2017-09-18T06:45:00Z,29.7858,-84.8752,0.0,26.5,2 
NERRS,ioos:station:NOAA.NERRS:apaebwq:1,2017-09-18T07:45:00Z,29.7858,-84.8752,0.0,26.5,2 
NERRS,ioos:station:NOAA.NERRS:apaebwq:1,2017-09-18T08:45:00Z,29.7858,-84.8752,0.0,26.5,2 
NERRS,ioos:station:NOAA.NERRS:apaebwq:1,2017-09-18T09:45:00Z,29.7858,-84.8752,0.0,26.5,2 
NERRS,ioos:station:NOAA.NERRS:apaebwq:1,2017-09-18T10:45:00Z,29.7858,-84.8752,0.0,26.5,2 
NERRS,ioos:station:NOAA.NERRS:apaebwq:1,2017-09-18T11:45:00Z,29.7858,-84.8752,0.0,26.5,2 
NERRS,ioos:station:NOAA.NERRS:apaebwq:1,2017-09-18T12:45:00Z,29.7858,-84.8752,0.0,26.5,2 
NERRS,ioos:station:NOAA.NERRS:apaebwq:1,2017-09-18T13:45:00Z,29.7858,-84.8752,0.0,26.5,2 
NERRS,ioos:station:NOAA.NERRS:apaebwq:1,2017-09-18T14:45:00Z,29.7858,-84.8752,0.0,26.6,2 
NERRS,ioos:station:NOAA.NERRS:apaebwq:1,2017-09-18T15:45:00Z,29.7858,-84.8752,0.0,26.8,2 
NERRS,ioos:station:NOAA.NERRS:apaebwq:1,2017-09-18T16:45:00Z,29.7858,-84.8752,0.0,26.9,2 
NERRS,ioos:station:NOAA.NERRS:apaebwq:1,2017-09-19T07:45:00Z,29.7858,-84.8752,0.0,27.3,2 
NERRS,ioos:station:NOAA.NERRS:apaebwq:1,2017-09-19T08:45:00Z,29.7858,-84.8752,0.0,27.3,2 
NERRS,ioos:station:NOAA.NERRS:apaebwq:1,2017-09-19T09:45:00Z,29.7858,-84.8752,0.0,27.3,2 
NERRS,ioos:station:NOAA.NERRS:apaebwq:1,2017-09-19T10:45:00Z,29.7858,-84.8752,0.0,27.4,2 
NERRS,ioos:station:NOAA.NERRS:apaebwq:1,2017-09-19T11:45:00Z,29.7858,-84.8752,0.0,27.4,2 
NERRS,ioos:station:NOAA.NERRS:apaebwq:1,2017-09-19T12:45:00Z,29.7858,-84.8752,0.0,27.4,2 
NERRS,ioos:station:NOAA.NERRS:apaebwq:1,2017-09-19T13:45:00Z,29.7858,-84.8752,0.0,27.4,2 
NERRS,ioos:station:NOAA.NERRS:apaebwq:1,2017-09-19T14:45:00Z,29.7858,-84.8752,0.0,27.5,2 
NERRS,ioos:station:NOAA.NERRS:apaebwq:1,2017-09-19T15:45:00Z,29.7858,-84.8752,0.0,27.6,2 
NERRS,ioos:station:NOAA.NERRS:apaebwq:1,2017-09-19T16:45:00Z,29.7858,-84.8752,0.0,27.6,2 
NERRS,ioos:station:NOAA.NERRS:apaebwq:1,2017-09-19T17:45:00Z,29.7858,-84.8752,0.0,27.6,2 
NERRS,ioos:station:NOAA.NERRS:apaebwq:1,2017-09-19T18:45:00Z,29.7858,-84.8752,0.0,27.7,2 
NERRS,ioos:station:NOAA.NERRS:apaebwq:1,2017-09-19T19:45:00Z,29.7858,-84.8752,0.0,27.7,2 
NERRS,ioos:station:NOAA.NERRS:apaebwq:1,2017-09-19T20:45:00Z,29.7858,-84.8752,0.0,27.7,2 
NERRS,ioos:station:NOAA.NERRS:apaebwq:1,2017-09-19T21:45:00Z,29.7858,-84.8752,0.0,27.8,2 
NERRS,ioos:station:NOAA.NERRS:apaebwq:1,2017-09-19T22:45:00Z,29.7858,-84.8752,0.0,28.5,2 
NERRS,ioos:station:NOAA.NERRS:apaebwq:1,2017-09-19T23:45:00Z,29.7858,-84.8752,0.0,28.6,2 
NERRS,ioos:station:NOAA.NERRS:apaebwq:1,2017-09-20T00:45:00Z,29.7858,-84.8752,0.0,28.8,2 
NERRS,ioos:station:NOAA.NERRS:apaebwq:1,2017-09-20T01:45:00Z,29.7858,-84.8752,0.0,28.8,2 
NERRS,ioos:station:NOAA.NERRS:apaebwq:1,2017-09-20T02:45:00Z,29.7858,-84.8752,0.0,28.7,2 
NERRS,ioos:station:NOAA.NERRS:apaebwq:1,2017-09-20T03:45:00Z,29.7858,-84.8752,0.0,28.4,2 
NERRS,ioos:station:NOAA.NERRS:apaebwq:1,2017-09-20T04:45:00Z,29.7858,-84.8752,0.0,28.3,2 
NERRS,ioos:station:NOAA.NERRS:apaebwq:1,2017-09-20T05:45:00Z,29.7858,-84.8752,0.0,28.3,2 
NERRS,ioos:station:NOAA.NERRS:apaebwq:1,2017-09-20T06:45:00Z,29.7858,-84.8752,0.0,28.2,2 
NERRS,ioos:station:NOAA.NERRS:apaebwq:1,2017-09-20T07:45:00Z,29.7858,-84.8752,0.0,28.3,2 
NERRS,ioos:station:NOAA.NERRS:apaebwq:1,2017-09-20T08:45:00Z,29.7858,-84.8752,0.0,28.3,2 
NERRS,ioos:station:NOAA.NERRS:apaebwq:1,2017-09-20T12:45:00Z,29.7858,-84.8752,0.0,27.9,2 
NERRS,ioos:station:NOAA.NERRS:apaebwq:1,2017-09-20T13:45:00Z,29.7858,-84.8752,0.0,27.8,2 
NERRS,ioos:station:NOAA.NERRS:apaebwq:1,2017-09-20T14:45:00Z,29.7858,-84.8752,0.0,27.9,2 
NERRS,ioos:station:NOAA.NERRS:apaebwq:1,2017-09-20T15:45:00Z,29.7858,-84.8752,0.0,28.0,2 
NERRS,ioos:station:NOAA.NERRS:apaebwq:1,2017-09-20T16:45:00Z,29.7858,-84.8752,0.0,28.1,2 
NERRS,ioos:station:NOAA.NERRS:apaebwq:1,2017-09-20T17:45:00Z,29.7858,-84.8752,0.0,28.8,2 
NERRS,ioos:station:NOAA.NERRS:apaebwq:1,2017-09-20T18:45:00Z,29.7858,-84.8752,0.0,29.0,2 
NERRS,ioos:station:NOAA.NERRS:apaebwq:1,2017-09-20T19:45:00Z,29.7858,-84.8752,0.0,29.2,2 
NERRS,ioos:station:NOAA.NERRS:apaebwq:1,2017-09-20T20:45:00Z,29.7858,-84.8752,0.0,29.2,2 
NERRS,ioos:station:NOAA.NERRS:apaebwq:1,2017-09-20T21:45:00Z,29.7858,-84.8752,0.0,29.2,2 
NERRS,ioos:station:NOAA.NERRS:apaebwq:1,2017-09-20T22:45:00Z,29.7858,-84.8752,0.0,29.2,2 
NERRS,ioos:station:NOAA.NERRS:apaebwq:1,2017-09-20T23:45:00Z,29.7858,-84.8752,0.0,29.3,2 
NERRS,ioos:station:NOAA.NERRS:apaebwq:1,2017-09-21T00:45:00Z,29.7858,-84.8752,0.0,29.4,2 
NERRS,ioos:station:NOAA.NERRS:apaebwq:1,2017-09-21T01:45:00Z,29.7858,-84.8752,0.0,29.3,2 
NERRS,ioos:station:NOAA.NERRS:apaebwq:1,2017-09-21T02:45:00Z,29.7858,-84.8752,0.0,29.2,2 
NERRS,ioos:station:NOAA.NERRS:apaebwq:1,2017-09-21T03:45:00Z,29.7858,-84.8752,0.0,29.1,2 
NERRS,ioos:station:NOAA.NERRS:apaebwq:1,2017-09-21T04:45:00Z,29.7858,-84.8752,0.0,29.0,2 
NERRS,ioos:station:NOAA.NERRS:apaebwq:1,2017-09-21T05:45:00Z,29.7858,-84.8752,0.0,28.9,2 
NERRS,ioos:station:NOAA.NERRS:apaebwq:1,2017-09-21T06:45:00Z,29.7858,-84.8752,0.0,28.8,2 
NERRS,ioos:station:NOAA.NERRS:apaebwq:1,2017-09-21T07:45:00Z,29.7858,-84.8752,0.0,28.7,2 
NERRS,ioos:station:NOAA.NERRS:apaebwq:1,2017-09-21T08:45:00Z,29.7858,-84.8752,0.0,28.7,2 
NERRS,ioos:station:NOAA.NERRS:apaebwq:1,2017-09-21T09:45:00Z,29.7858,-84.8752,0.0,28.7,2 
NERRS,ioos:station:NOAA.NERRS:apaebwq:1,2017-09-21T10:45:00Z,29.7858,-84.8752,0.0,28.5,2 
NERRS,ioos:station:NOAA.NERRS:apaebwq:1,2017-09-21T11:45:00Z,29.7858,-84.8752,0.0,28.4,2 
NERRS,ioos:station:NOAA.NERRS:apaebwq:1,2017-09-21T12:45:00Z,29.7858,-84.8752,0.0,28.4,2 
NERRS,ioos:station:NOAA.NERRS:apaebwq:1,2017-09-21T13:45:00Z,29.7858,-84.8752,0.0,28.4,2 
NERRS,ioos:station:NOAA.NERRS:apaebwq:1,2017-09-21T14:45:00Z,29.7858,-84.8752,0.0,28.4,2 
NERRS,ioos:station:NOAA.NERRS:apaebwq:1,2017-09-21T15:45:00Z,29.7858,-84.8752,0.0,28.5,2 
NERRS,ioos:station:NOAA.NERRS:apaebwq:1,2017-09-21T16:45:00Z,29.7858,-84.8752,0.0,28.5,2 
NERRS,ioos:station:NOAA.NERRS:apaebwq:1,2017-09-21T17:45:00Z,29.7858,-84.8752,0.0,28.7,2 
NERRS,ioos:station:NOAA.NERRS:apaebwq:1,2017-09-21T18:45:00Z,29.7858,-84.8752,0.0,29.0,2 
NERRS,ioos:station:NOAA.NERRS:apaebwq:1,2017-09-21T19:45:00Z,29.7858,-84.8752,0.0,29.6,2 
NERRS,ioos:station:NOAA.NERRS:apaebwq:1,2017-09-21T20:45:00Z,29.7858,-84.8752,0.0,29.7,2 
NERRS,ioos:station:NOAA.NERRS:apaebwq:1,2017-09-21T21:45:00Z,29.7858,-84.8752,0.0,29.6,2 
NERRS,ioos:station:NOAA.NERRS:apaebwq:1,2017-09-21T22:45:00Z,29.7858,-84.8752,0.0,29.6,2 
NERRS,ioos:station:NOAA.NERRS:apaebwq:1,2017-09-21T23:45:00Z,29.7858,-84.8752,0.0,29.6,2 
NERRS,ioos:station:NOAA.NERRS:apaebwq:1,2017-09-22T00:45:00Z,29.7858,-84.8752,0.0,29.5,2 
NERRS,ioos:station:NOAA.NERRS:apaebwq:1,2017-09-22T01:45:00Z,29.7858,-84.8752,0.0,29.4,2 
NERRS,ioos:station:NOAA.NERRS:apaebwq:1,2017-09-22T02:45:00Z,29.7858,-84.8752,0.0,29.0,2 
NERRS,ioos:station:NOAA.NERRS:apaebwq:1,2017-09-22T03:45:00Z,29.7858,-84.8752,0.0,28.9,2 
NERRS,ioos:station:NOAA.NERRS:apaebwq:1,2017-09-22T04:45:00Z,29.7858,-84.8752,0.0,28.8,2 
NERRS,ioos:station:NOAA.NERRS:apaebwq:1,2017-09-22T05:45:00Z,29.7858,-84.8752,0.0,28.5,2 
NERRS,ioos:station:NOAA.NERRS:apaebwq:1,2017-09-22T06:45:00Z,29.7858,-84.8752,0.0,28.2,2 
NERRS,ioos:station:NOAA.NERRS:apaebwq:1,2017-09-22T07:45:00Z,29.7858,-84.8752,0.0,28.2,2 
NERRS,ioos:station:NOAA.NERRS:apaebwq:1,2017-09-22T08:45:00Z,29.7858,-84.8752,0.0,28.1,2 
NERRS,ioos:station:NOAA.NERRS:apaebwq:1,2017-09-22T09:45:00Z,29.7858,-84.8752,0.0,28.5,2 